Starlink 32035

operational
NORAD ID: 60107 Int'l Des: 2024-117 Owner: SPXS Country: US Constellation: starlink
LEOCIRCULAR

Starlink 32035について

説明を読み込み中...

リアルタイム位置

3D地球を読み込み中...

次回通過

高度履歴

Altitude vs Time

uPlot chart will show altitude changes over time

軌道要素

1 60107U 24117S 25303.23224112 -.00000349 00000-0 35731-6 0 9991
2 60107 53.1594 283.0269 0001247 78.0857 282.0283 15.30194107 76911
Epoch: Oct 30, 2025 • Age: 28 hours

現在のステータス

高度 475.1 km
速度 7.63 km/s
衛星直下点 10.08°N, 97.54°E
打ち上げ日 Jun 23, 2024
運用期間 1.3 years
タイプ internet

技術仕様

分類 Payload
質量 730.00 kg
乾燥質量 700.00 kg
総質量 730.00 kg
長さ 0.30 m
直径 4.10 m
スパン 29.00 m
形状 Box + pan
製造者 SPXS
バスタイプ Starlink V2M
フェーズステータス In Orbit
所有者/国 SPXS/US

大規模コンステレーション

Loading constellations...